McCook, NE

12:23 PM CST on February 20, 2017 (GMT -0600)
McCook Municipal

Weather History for KMCK - June, 2013

Change the Weather History Date:

Saturday, June 1, 2013

  Actual Average Record
Temperature  
Mean Temperature 58 °F 65 °F  
Max Temperature 70 °F 78 °F 107 °F (2002)
Min Temperature 46 °F 51 °F 39 °F (1982)
Degree Days  
Heating Degree Days 5    
Growing Degree Days 10 (Base 50)    
Moisture  
Dew Point 43 °F    
Average Humidity 58    
Maximum Humidity 77    
Minimum Humidity 36    
Precipitation  
Precipitation 0.00 in 0.12 in 1.44 in (2003)
Month to date precipitation 0.00 0.12  
Year to date precipitation 4.89 8.06  
Sea Level Pressure  
Sea Level Pressure 30.00 in    
Wind  
Wind Speed 21 mph (NNW)    
Max Wind Speed 33 mph    
Max Gust Speed 41 mph    
Visibility 10 miles    
Events      
T = Trace of Precipitation, MM = Missing Value Source: NWS Daily Summary

Daily Weather History Graph

Daily Weather History Graph

Search for Another Location

Airport or City:

Trip Planner

Search our weather history database for the weather conditions in past years. The results will help you decide how hot, cold, wet, or windy it might be!

Date:

Astronomy

Jun. 01, 2013 Rise Set
Actual Time 6:14 AM CDT 9:06 PM CDT
Civil Twilight 5:42 AM CDT 9:38 PM CDT
Nautical Twilight 5:01 AM CDT 10:19 PM CDT
Astronomical Twilight 4:15 AM CDT 11:06 PM CDT
Moon 2:12 AM CDT (6/1) 2:36 PM CDT (6/1)
Length of Visible Light 15h 55m
Length of Day
14h 51m
Last Quarter, 40% of the Moon is Illuminated
Jun 1
Last Quarter
Jun 8
New
Jun 16
First Quarter
Jun 23
Full
Jun 29
Last Quarter

Hourly Weather History & Observations

Time (CDT) Temp. Dew Point Humidity Pressure Visibility Wind Dir Wind Speed Gust Speed Precip Events Conditions
12:53 AM 57.0 °F 43.0 °F 59% 29.82 in 10.0 mi NW 23.0 mph 31.1 mph N/A   Clear
1:53 AM 55.0 °F 43.0 °F 64% 29.83 in 10.0 mi WNW 18.4 mph 29.9 mph N/A   Clear
2:53 AM 54.0 °F 43.0 °F 66% 29.85 in 10.0 mi WNW 15.0 mph 24.2 mph N/A   Clear
3:53 AM 54.0 °F 43.0 °F 66% 29.86 in 10.0 mi WNW 17.3 mph 28.8 mph N/A   Clear
4:53 AM 54.0 °F 44.1 °F 69% 29.88 in 10.0 mi WNW 17.3 mph 25.3 mph N/A   Overcast
5:53 AM 53.1 °F 44.1 °F 71% 29.89 in 10.0 mi WNW 16.1 mph 23.0 mph N/A   Scattered Clouds
6:53 AM 54.0 °F 45.0 °F 72% 29.92 in 10.0 mi WNW 18.4 mph 25.3 mph N/A   Overcast
7:53 AM 55.0 °F 45.0 °F 69% 29.94 in 10.0 mi NW 24.2 mph 34.5 mph N/A   Mostly Cloudy
8:04 AM 55.4 °F 44.6 °F 67% 29.98 in 10.0 mi NW 24.2 mph 34.5 mph N/A   Overcast
8:53 AM 55.9 °F 44.1 °F 64% 29.98 in 10.0 mi NNW 26.5 mph 38.0 mph N/A   Overcast
9:51 AM 57.2 °F 44.6 °F 63% 30.02 in 10.0 mi NNW 27.6 mph 38.0 mph N/A   Overcast
9:53 AM 59.0 °F 44.1 °F 58% 29.99 in 10.0 mi NNW 33.4 mph 41.4 mph N/A   Overcast
10:53 AM 61.0 °F 44.1 °F 54% 30.00 in 10.0 mi NNW 25.3 mph 33.4 mph N/A   Overcast
11:53 AM 60.1 °F 43.0 °F 53% 30.03 in 10.0 mi NNW 25.3 mph - N/A   Overcast
12:53 PM 61.0 °F 43.0 °F 52% 30.04 in 10.0 mi NNW 29.9 mph 35.7 mph N/A   Overcast
1:53 PM 63.0 °F 43.0 °F 48% 30.04 in 10.0 mi NNW 25.3 mph 33.4 mph N/A   Overcast
2:53 PM 64.9 °F 44.1 °F 47% 30.06 in 10.0 mi North 26.5 mph 36.8 mph N/A   Overcast
3:53 PM 68.0 °F 44.1 °F 42% 30.05 in 10.0 mi North 24.2 mph 32.2 mph N/A   Partly Cloudy
4:53 PM 70.0 °F 43.0 °F 38% 30.04 in 10.0 mi North 28.8 mph 36.8 mph N/A   Partly Cloudy
5:53 PM 70.0 °F 42.1 °F 36% 30.04 in 10.0 mi North 21.9 mph 28.8 mph N/A   Mostly Cloudy
6:53 PM 68.0 °F 42.1 °F 39% 30.05 in 10.0 mi North 24.2 mph 29.9 mph N/A   Scattered Clouds
7:53 PM 64.9 °F 42.1 °F 43% 30.08 in 10.0 mi North 15.0 mph - N/A   Clear
8:53 PM 59.0 °F 43.0 °F 55% 30.09 in 10.0 mi NNE 9.2 mph - N/A   Clear
9:53 PM 53.1 °F 42.1 °F 66% 30.13 in 10.0 mi NNE 9.2 mph - N/A   Clear
10:53 PM 50.0 °F 42.1 °F 74% 30.14 in 10.0 mi North 9.2 mph - N/A   Clear
11:53 PM 48.0 °F 41.0 °F 77% 30.15 in 10.0 mi North 6.9 mph - N/A   Clear